This is the latest recevied weather packets stored in our database for station/object OE6ACM-14. If no packets are shown the sender has not sent any weather packets the latest 10 day(s).
| Time | Temp. | Humidity | Pressure | Rain* | Wind** | Luminosity | Snow |
|---|---|---|---|---|---|---|---|
| 1777948325 | 7.22° C | 63% | 923.4 hPa | - | - | - | - |
| 1777946677 | 7.22° C | 62% | 923.4 hPa | - | - | - | - |
| 1777946377 | 7.78° C | 62% | 923.5 hPa | - | - | - | - |
| 1777946077 | 7.78° C | 63% | 923.5 hPa | - | - | - | - |
| 1777945777 | 7.22° C | 62% | 923.5 hPa | - | - | - | - |
| 1777945477 | 7.78° C | 60% | 923.6 hPa | - | - | - | - |
| 1777945177 | 8.33° C | 61% | 923.6 hPa | - | - | - | - |
| 1777944877 | 7.78° C | 61% | 923.7 hPa | - | - | - | - |
| 1777944577 | 7.78° C | 60% | 923.7 hPa | - | - | - | - |
| 1777944277 | 8.89° C | 59% | 923.6 hPa | - | - | - | - |
| 1777943977 | 9.44° C | 58% | 923.5 hPa | - | - | - | - |
| 1777943677 | 9.44° C | 58% | 923.6 hPa | - | - | - | - |
| 1777943377 | 8.89° C | 59% | 923.6 hPa | - | - | - | - |
| 1777943077 | 8.89° C | 60% | 923.6 hPa | - | - | - | - |
| 1777942777 | 8.33° C | 60% | 923.7 hPa | - | - | - | - |
| 1777942477 | 8.33° C | 60% | 923.7 hPa | - | - | - | - |
| 1777942177 | 8.33° C | 59% | 923.6 hPa | - | - | - | - |
| 1777941877 | 9.44° C | 57% | 923.6 hPa | - | - | - | - |
| 1777941577 | 9.44° C | 58% | 923.8 hPa | - | - | - | - |
| 1777941277 | 8.89° C | 58% | 923.7 hPa | - | - | - | - |
| 1777940977 | 9.44° C | 58% | 923.8 hPa | - | - | - | - |
| 1777940677 | 9.44° C | 58% | 923.8 hPa | - | - | - | - |
| 1777940377 | 8.89° C | 59% | 923.9 hPa | - | - | - | - |
| 1777940077 | 8.89° C | 59% | 924 hPa | - | - | - | - |
| 1777939777 | 8.89° C | 58% | 924 hPa | - | - | - | - |
* Rain since midnight (hover to see other rain measurements)
** Current wind speed in m/s (hover to see current wind gust speed)